Previsão horária em Rio de Janeiro

Hoje, 8 Março, Segunda-feira

Tempo Temperatura Precipitação Vento Pressão Humidade
00:00 +24°C° 0.4 mm 1 m/s 757 mmHg 89%
01:00 +24°C° 0 mm 1 m/s 757 mmHg 88%
02:00 +24°C° 0 mm 1 m/s 756 mmHg 88%
03:00 +24°C° 0 mm 1 m/s 756 mmHg 88%
04:00 +22°C° 0 mm 0 m/s 756 mmHg 87%
05:00 +22°C° 0 mm 0 m/s 756 mmHg 87%
06:00 +23°C° 0 mm 0 m/s 756 mmHg 86%
07:00 +24°C° 0 mm 0 m/s 756 mmHg 82%
08:00 +25°C° 0 mm 0 m/s 757 mmHg 78%
09:00 +28°C° 0 mm 1 m/s 757 mmHg 73%
10:00 +29°C° 0.1 mm 1 m/s 757 mmHg 71%
11:00 +29°C° 0.1 mm 2 m/s 757 mmHg 68%
12:00 +30°C° 0.1 mm 2 m/s 756 mmHg 65%
13:00 +30°C° 0.6 mm 2 m/s 756 mmHg 66%
14:00 +30°C° 0.6 mm 2 m/s 756 mmHg 67%
15:00 +29°C° 0.6 mm 2 m/s 755 mmHg 68%
16:00 +29°C° 0.4 mm 2 m/s 755 mmHg 71%
17:00 +28°C° 0.4 mm 1 m/s 755 mmHg 74%
18:00 +27°C° 0.4 mm 1 m/s 755 mmHg 77%
19:00 +27°C° 0.1 mm 1 m/s 756 mmHg 79%
20:00 +26°C° 0.1 mm 1 m/s 756 mmHg 80%
21:00 +26°C° 0.1 mm 1 m/s 757 mmHg 81%
22:00 +26°C° 0.1 mm 1 m/s 757 mmHg 82%
23:00 +24°C° 0.1 mm 0 m/s 756 mmHg 83%

Amanhã, 9 Março, Terça-feira

Tempo Temperatura Precipitação Vento Pressão Humidade
00:00 +23°C° 0.1 mm 0 m/s 756 mmHg 84%
01:00 +23°C° 0 mm 0 m/s 756 mmHg 85%
02:00 +23°C° 0 mm 0 m/s 755 mmHg 85%
03:00 +25°C° 0 mm 1 m/s 755 mmHg 86%
04:00 +23°C° 0 mm 0 m/s 755 mmHg 86%
05:00 +23°C° 0 mm 0 m/s 755 mmHg 86%
06:00 +22°C° 0 mm 0 m/s 755 mmHg 87%
07:00 +24°C° 0 mm 0 m/s 755 mmHg 81%
08:00 +25°C° 0 mm 0 m/s 755 mmHg 75%
09:00 +27°C° 0 mm 0 m/s 756 mmHg 69%
10:00 +30°C° 0 mm 1 m/s 755 mmHg 65%
11:00 +31°C° 0 mm 1 m/s 755 mmHg 62%
12:00 +32°C° 0 mm 2 m/s 755 mmHg 58%
13:00 +32°C° 0.2 mm 2 m/s 754 mmHg 60%
14:00 +31°C° 0.2 mm 3 m/s 754 mmHg 62%
15:00 +31°C° 0.2 mm 3 m/s 753 mmHg 63%
16:00 +30°C° 0.3 mm 3 m/s 754 mmHg 68%
17:00 +29°C° 0.3 mm 3 m/s 754 mmHg 72%
18:00 +28°C° 0.3 mm 3 m/s 754 mmHg 76%
19:00 +27°C° 0 mm 2 m/s 754 mmHg 78%
20:00 +27°C° 0 mm 2 m/s 754 mmHg 80%
21:00 +26°C° 0 mm 2 m/s 755 mmHg 82%
22:00 +26°C° 0 mm 2 m/s 755 mmHg 83%
23:00 +26°C° 0 mm 2 m/s 755 mmHg 84%

Depois de amanhã, 10 Março, Quarta-feira

Tempo Temperatura Precipitação Vento Pressão Humidade
00:00 +25°C° 0 mm 1 m/s 754 mmHg 85%
01:00 +25°C° 0 mm 1 m/s 754 mmHg 86%
02:00 +25°C° 0 mm 1 m/s 754 mmHg 86%
03:00 +25°C° 0 mm 1 m/s 753 mmHg 87%
04:00 +25°C° 0 mm 1 m/s 753 mmHg 87%
05:00 +25°C° 0 mm 1 m/s 754 mmHg 87%
06:00 +24°C° 0 mm 1 m/s 754 mmHg 87%
07:00 +26°C° 0 mm 1 m/s 754 mmHg 79%
08:00 +28°C° 0 mm 1 m/s 754 mmHg 72%
09:00 +28°C° 0 mm 0 m/s 755 mmHg 65%
10:00 +31°C° 0 mm 1 m/s 755 mmHg 60%
11:00 +33°C° 0 mm 1 m/s 754 mmHg 56%
12:00 +35°C° 0 mm 2 m/s 754 mmHg 51%
13:00 +35°C° 0.2 mm 2 m/s 754 mmHg 53%
14:00 +34°C° 0.2 mm 2 m/s 753 mmHg 55%
15:00 +34°C° 0.2 mm 2 m/s 753 mmHg 57%
16:00 +31°C° 0.2 mm 2 m/s 753 mmHg 63%
17:00 +30°C° 0.2 mm 2 m/s 753 mmHg 68%
18:00 +29°C° 0.2 mm 1 m/s 754 mmHg 73%
19:00 +28°C° 0.1 mm 1 m/s 754 mmHg 75%
20:00 +28°C° 0.1 mm 1 m/s 755 mmHg 77%
21:00 +27°C° 0.1 mm 1 m/s 755 mmHg 79%
22:00 +27°C° 0 mm 1 m/s 755 mmHg 80%
23:00 +27°C° 0 mm 1 m/s 755 mmHg 82%

11 Março, Quinta-feira

Tempo Temperatura Precipitação Vento Pressão Humidade
00:00 +26°C° 0 mm 1 m/s 755 mmHg 83%
01:00 +26°C° 0 mm 1 m/s 755 mmHg 83%
02:00 +26°C° 0 mm 1 m/s 755 mmHg 83%
03:00 +26°C° 0 mm 1 m/s 754 mmHg 83%
04:00 +25°C° 0.1 mm 1 m/s 755 mmHg 83%
05:00 +25°C° 0.1 mm 1 m/s 755 mmHg 84%
06:00 +25°C° 0.1 mm 1 m/s 755 mmHg 84%
07:00 +26°C° 0 mm 1 m/s 755 mmHg 78%
08:00 +28°C° 0 mm 1 m/s 756 mmHg 72%
09:00 +29°C° 0 mm 1 m/s 756 mmHg 66%
10:00 +30°C° 0 mm 2 m/s 756 mmHg 62%
11:00 +32°C° 0 mm 2 m/s 756 mmHg 59%
12:00 +34°C° 0 mm 3 m/s 756 mmHg 56%
13:00 +33°C° 0.3 mm 3 m/s 756 mmHg 59%
14:00 +31°C° 0.3 mm 3 m/s 755 mmHg 63%
15:00 +30°C° 0.3 mm 3 m/s 755 mmHg 67%
16:00 +29°C° 0.2 mm 3 m/s 755 mmHg 70%
17:00 +29°C° 0.2 mm 2 m/s 755 mmHg 72%
18:00 +28°C° 0.2 mm 1 m/s 755 mmHg 75%
19:00 +28°C° 0 mm 1 m/s 756 mmHg 76%
20:00 +27°C° 0 mm 1 m/s 756 mmHg 77%
21:00 +27°C° 0 mm 1 m/s 757 mmHg 78%
22:00 +27°C° 0 mm 1 m/s 757 mmHg 80%
23:00 +26°C° 0 mm 1 m/s 757 mmHg 81%

12 Março, Sexta-feira

Tempo Temperatura Precipitação Vento Pressão Humidade
00:00 +26°C° 0 mm 1 m/s 757 mmHg 82%
01:00 +26°C° 0 mm 1 m/s 757 mmHg 83%
02:00 +26°C° 0 mm 1 m/s 756 mmHg 84%
03:00 +25°C° 0 mm 1 m/s 756 mmHg 85%
04:00 +25°C° 0 mm 1 m/s 756 mmHg 86%
05:00 +25°C° 0 mm 1 m/s 756 mmHg 86%
06:00 +25°C° 0 mm 1 m/s 757 mmHg 86%
07:00 +26°C° 0 mm 1 m/s 757 mmHg 79%
08:00 +28°C° 0 mm 1 m/s 757 mmHg 73%
09:00 +30°C° 0 mm 1 m/s 757 mmHg 66%
10:00 +30°C° 0 mm 2 m/s 757 mmHg 64%
11:00 +31°C° 0 mm 3 m/s 757 mmHg 62%
12:00 +31°C° 0 mm 3 m/s 757 mmHg 60%
13:00 +32°C° 0.1 mm 4 m/s 757 mmHg 62%
14:00 +30°C° 0.1 mm 4 m/s 757 mmHg 64%
15:00 +30°C° 0.1 mm 4 m/s 756 mmHg 66%
16:00 +29°C° 0.1 mm 3 m/s 757 mmHg 68%
17:00 +28°C° 0.1 mm 3 m/s 757 mmHg 70%
18:00 +28°C° 0.1 mm 2 m/s 757 mmHg 72%
19:00 +27°C° 0.1 mm 2 m/s 757 mmHg 74%
20:00 +27°C° 0.1 mm 1 m/s 758 mmHg 76%
21:00 +26°C° 0.1 mm 1 m/s 759 mmHg 78%
22:00 +26°C° 0 mm 1 m/s 759 mmHg 80%
23:00 +26°C° 0 mm 1 m/s 759 mmHg 81%

13 Março, Sábado

Tempo Temperatura Precipitação Vento Pressão Humidade
00:00 +23°C° 0 mm 0 m/s 759 mmHg 82%
01:00 +23°C° 0 mm 0 m/s 758 mmHg 83%
02:00 +25°C° 0 mm 1 m/s 758 mmHg 84%
03:00 +24°C° 0 mm 1 m/s 757 mmHg 85%
04:00 +24°C° 0 mm 1 m/s 757 mmHg 85%
05:00 +24°C° 0 mm 1 m/s 758 mmHg 85%
06:00 +24°C° 0 mm 1 m/s 758 mmHg 85%
07:00 +26°C° 0 mm 1 m/s 758 mmHg 78%
08:00 +27°C° 0 mm 1 m/s 758 mmHg 71%
09:00 +29°C° 0 mm 1 m/s 759 mmHg 65%
10:00 +30°C° 0.1 mm 1 m/s 758 mmHg 62%
11:00 +31°C° 0.1 mm 2 m/s 758 mmHg 60%
12:00 +31°C° 0.1 mm 3 m/s 758 mmHg 58%
13:00 +31°C° 0.1 mm 3 m/s 758 mmHg 60%
14:00 +30°C° 0.1 mm 4 m/s 758 mmHg 62%
15:00 +29°C° 0.1 mm 4 m/s 757 mmHg 64%
16:00 +28°C° 0 mm 3 m/s 757 mmHg 67%
17:00 +28°C° 0 mm 3 m/s 757 mmHg 69%
18:00 +27°C° 0 mm 2 m/s 757 mmHg 71%
19:00 +27°C° 0 mm 2 m/s 758 mmHg 72%
20:00 +26°C° 0 mm 2 m/s 758 mmHg 72%
21:00 +26°C° 0 mm 1 m/s 759 mmHg 73%
22:00 +26°C° 0 mm 1 m/s 759 mmHg 75%
23:00 +25°C° 0 mm 1 m/s 759 mmHg 77%
Mostrar mais